Time,TemperatureF,DewpointF,PressureIn,WindDirection,WindDirectionDegrees,WindSpeedMPH,WindSpeedGustMPH,Humidity,HourlyPrecipIn,Conditions,Clouds,dailyrainin,SoftwareType,DateUTC
2013-09-02 00:00:00,70.6,69.1,29.77,North,1,0.0,0.0,95,0.00,,CLR,0.00,VWS V14.00,2013-09-02 04:00:00,
2013-09-02 00:01:00,70.6,69.1,29.77,North,1,0.0,0.0,95,0.00,,CLR,0.00,VWS V14.00,2013-09-02 04:01:00,
2013-09-02 00:02:00,70.6,69.1,29.77,North,1,0.0,0.0,95,0.00,,CLR,0.00,VWS V14.00,2013-09-02 04:02:00,
2013-09-02 00:03:00,70.6,69.1,29.77,North,1,0.0,0.0,95,0.00,,CLR,0.00,VWS V14.00,2013-09-02 04:03:00,
2013-09-02 00:05:00,70.6,69.1,29.77,North,1,0.0,0.0,95,0.00,,CLR,0.00,VWS V14.00,2013-09-02 04:05:00,
2013-09-02 00:11:00,70.6,69.1,29.77,North,1,0.0,0.0,95,0.00,,CLR,0.00,VWS V14.00,2013-09-02 04:11:00,
2013-09-02 00:16:00,70.6,69.1,29.77,North,1,0.0,0.0,95,0.00,,CLR,0.00,VWS V14.00,2013-09-02 04:16:00,
2013-09-02 00:17:00,70.6,69.1,29.77,North,1,0.0,0.0,95,0.00,,CLR,0.00,VWS V14.00,2013-09-02 04:17:00,
2013-09-02 00:22:00,70.7,69.2,29.77,North,359,0.0,0.0,95,0.00,,CLR,0.00,VWS V14.00,2013-09-02 04:22:00,
2013-09-02 00:27:00,70.8,69.3,29.77,North,359,0.0,0.0,95,0.00,,CLR,0.00,VWS V14.00,2013-09-02 04:27:00,
2013-09-02 00:30:00,70.8,69.3,29.77,North,359,0.0,0.0,95,0.00,,CLR,0.00,VWS V14.00,2013-09-02 04:30:00,
2013-09-02 00:32:00,70.8,69.3,29.77,North,359,0.0,0.0,95,0.00,,CLR,0.00,VWS V14.00,2013-09-02 04:32:00,
2013-09-02 00:37:00,70.9,69.4,29.77,North,8,0.0,0.0,95,0.00,,CLR,0.00,VWS V14.00,2013-09-02 04:37:00,
2013-09-02 00:42:00,70.9,69.4,29.77,North,8,0.0,0.0,95,0.00,,CLR,0.00,VWS V14.00,2013-09-02 04:42:00,
2013-09-02 00:47:00,70.9,69.4,29.77,North,8,0.0,0.0,95,0.00,,CLR,0.00,VWS V14.00,2013-09-02 04:47:00,
2013-09-02 00:52:00,71.0,69.5,29.77,North,8,0.0,0.0,95,0.00,,,0.00,VWS V14.00,2013-09-02 04:52:00,
2013-09-02 00:57:00,71.1,69.9,29.77,North,8,0.0,0.0,96,0.00,,,0.00,VWS V14.00,2013-09-02 04:57:00,
2013-09-02 01:00:00,71.1,69.9,29.77,North,7,0.0,0.0,96,0.00,,CLR,0.00,VWS V14.00,2013-09-02 05:00:00,
2013-09-02 01:02:00,71.1,69.6,29.76,North,8,0.0,0.0,95,0.00,,SCT007,0.00,VWS V14.00,2013-09-02 05:02:00,
2013-09-02 01:07:00,71.2,69.7,29.76,North,8,0.0,0.0,95,0.00,,SCT007,0.00,VWS V14.00,2013-09-02 05:07:00,
2013-09-02 01:12:00,71.2,69.7,29.77,North,7,0.0,0.0,95,0.00,,BKN007,0.00,VWS V14.00,2013-09-02 05:12:00,
2013-09-02 01:17:00,71.2,69.7,29.76,NNW,336,0.0,0.0,95,0.00,,BKN007,0.00,VWS V14.00,2013-09-02 05:17:00,
2013-09-02 01:22:00,71.2,69.7,29.76,NNW,336,0.0,0.0,95,0.00,,BKN007,0.00,VWS V14.00,2013-09-02 05:22:00,
2013-09-02 01:28:00,71.3,69.8,29.76,NNW,336,0.0,0.0,95,0.00,,BKN007,0.00,VWS V14.00,2013-09-02 05:28:00,
2013-09-02 01:30:00,71.3,69.8,29.76,NNW,336,0.0,0.0,95,0.00,,CLR,0.00,VWS V14.00,2013-09-02 05:30:00,
2013-09-02 01:33:00,71.3,69.8,29.76,NNW,336,0.0,0.0,95,0.00,,BKN007,0.00,VWS V14.00,2013-09-02 05:33:00,
2013-09-02 01:38:00,71.4,69.9,29.76,NNW,336,0.0,0.0,95,0.00,,BKN007,0.00,VWS V14.00,2013-09-02 05:38:00,
2013-09-02 01:43:00,71.4,69.9,29.76,NNW,336,0.0,0.0,95,0.00,,BKN007,0.00,VWS V14.00,2013-09-02 05:43:00,
2013-09-02 01:48:00,71.5,70.0,29.76,NNW,336,0.0,0.0,95,0.00,,BKN007,0.00,VWS V14.00,2013-09-02 05:48:00,
2013-09-02 01:53:00,71.6,70.1,29.76,NNW,335,0.0,0.0,95,0.00,,BKN007,0.00,VWS V14.00,2013-09-02 05:53:00,
2013-09-02 01:58:00,71.6,70.1,29.76,NNW,336,0.0,0.0,95,0.00,,BKN007,0.00,VWS V14.00,2013-09-02 05:58:00,
2013-09-02 02:00:00,71.6,70.1,29.76,NNW,335,0.0,0.0,95,0.00,,CLR,0.00,VWS V14.00,2013-09-02 06:00:00,
2013-09-02 02:03:00,71.6,70.1,29.76,NNW,336,0.0,0.0,95,0.00,,,0.00,VWS V14.00,2013-09-02 06:03:00,
2013-09-02 02:08:00,71.6,70.1,29.76,NNW,336,0.0,0.0,95,0.00,,,0.00,VWS V14.00,2013-09-02 06:08:00,
2013-09-02 02:13:00,71.7,70.2,29.76,NNW,336,0.0,0.0,95,0.00,,,0.00,VWS V14.00,2013-09-02 06:13:00,
2013-09-02 02:18:00,71.8,70.3,29.76,NNW,335,0.0,0.0,95,0.00,,,0.00,VWS V14.00,2013-09-02 06:18:00,
2013-09-02 02:23:00,71.8,70.3,29.76,NNW,335,0.0,0.0,95,0.00,,,0.00,VWS V14.00,2013-09-02 06:23:00,
2013-09-02 02:28:00,71.9,70.4,29.76,NNW,336,0.0,0.0,95,0.00,,,0.00,VWS V14.00,2013-09-02 06:28:00,
2013-09-02 02:30:00,71.9,70.4,29.76,NNW,336,0.0,0.0,95,0.00,,CLR,0.00,VWS V14.00,2013-09-02 06:30:00,
2013-09-02 02:33:00,71.9,70.4,29.76,NNW,335,0.0,0.0,95,0.00,,,0.00,VWS V14.00,2013-09-02 06:33:00,
2013-09-02 02:38:00,72.0,70.5,29.76,NNW,335,0.0,0.0,95,0.00,,,0.00,VWS V14.00,2013-09-02 06:38:00,
2013-09-02 02:43:00,72.1,70.6,29.76,NNW,336,0.0,0.0,95,0.00,,,0.00,VWS V14.00,2013-09-02 06:43:00,
2013-09-02 02:48:00,72.1,70.6,29.76,NNW,336,0.0,0.0,95,0.00,,,0.00,VWS V14.00,2013-09-02 06:48:00,
2013-09-02 02:53:00,72.2,70.7,29.76,NNW,335,0.0,0.0,95,0.00,,,0.00,VWS V14.00,2013-09-02 06:53:00,
2013-09-02 02:59:00,72.2,70.7,29.75,NNW,336,0.0,0.0,95,0.00,,,0.00,VWS V14.00,2013-09-02 06:59:00,
2013-09-02 03:00:00,72.2,70.7,29.75,NNW,336,0.0,0.0,95,0.00,,CLR,0.00,VWS V14.00,2013-09-02 07:00:00,
2013-09-02 03:04:00,72.3,70.8,29.75,NNW,336,0.0,0.0,95,0.00,,,0.00,VWS V14.00,2013-09-02 07:04:00,
2013-09-02 03:09:00,72.3,70.8,29.75,NNW,336,0.0,0.0,95,0.00,,,0.00,VWS V14.00,2013-09-02 07:09:00,
2013-09-02 03:14:00,72.4,70.9,29.75,NNW,336,0.0,0.0,95,0.00,,,0.00,VWS V14.00,2013-09-02 07:14:00,
2013-09-02 03:19:00,72.4,70.9,29.75,NNW,335,0.0,0.0,95,0.00,,,0.00,VWS V14.00,2013-09-02 07:19:00,
2013-09-02 03:24:00,72.4,70.9,29.74,NNW,335,0.0,0.0,95,0.00,,,0.00,VWS V14.00,2013-09-02 07:24:00,
2013-09-02 03:29:00,72.4,70.9,29.74,NNW,336,0.0,0.0,95,0.00,,,0.00,VWS V14.00,2013-09-02 07:29:00,
2013-09-02 03:30:00,72.4,70.9,29.74,NNW,336,0.0,0.0,95,0.00,,CLR,0.00,VWS V14.00,2013-09-02 07:30:00,
2013-09-02 03:34:00,72.4,70.9,29.74,NNW,335,0.0,0.0,95,0.00,,,0.00,VWS V14.00,2013-09-02 07:34:00,
2013-09-02 03:39:00,72.4,71.2,29.74,NNW,336,0.0,0.0,96,0.00,,,0.00,VWS V14.00,2013-09-02 07:39:00,
2013-09-02 03:44:00,72.4,71.2,29.74,NNW,336,0.0,0.0,96,0.00,,,0.00,VWS V14.00,2013-09-02 07:44:00,
2013-09-02 03:49:00,72.4,71.2,29.74,NNW,336,0.0,0.0,96,0.00,,,0.00,VWS V14.00,2013-09-02 07:49:00,
2013-09-02 03:54:00,72.4,71.2,29.74,NNW,336,0.0,0.0,96,0.00,,,0.00,VWS V14.00,2013-09-02 07:54:00,
2013-09-02 03:59:00,72.5,71.3,29.74,NNW,335,0.0,0.0,96,0.00,,,0.00,VWS V14.00,2013-09-02 07:59:00,
2013-09-02 04:00:00,72.4,71.2,29.74,NNW,336,0.0,0.0,96,0.00,,CLR,0.00,VWS V14.00,2013-09-02 08:00:00,
2013-09-02 04:04:00,72.5,71.3,29.74,NNW,336,0.0,0.0,96,0.00,,,0.00,VWS V14.00,2013-09-02 08:04:00,
2013-09-02 04:09:00,72.5,71.3,29.74,NNW,335,0.0,0.0,96,0.00,,,0.00,VWS V14.00,2013-09-02 08:09:00,
2013-09-02 04:14:00,72.5,71.3,29.74,NNW,335,0.0,0.0,96,0.00,,,0.00,VWS V14.00,2013-09-02 08:14:00,
2013-09-02 04:19:00,72.6,71.4,29.74,NNW,336,0.0,0.0,96,0.00,,,0.00,VWS V14.00,2013-09-02 08:19:00,
2013-09-02 04:25:00,72.6,71.4,29.74,NNW,336,0.0,0.0,96,0.00,,,0.00,VWS V14.00,2013-09-02 08:25:00,
2013-09-02 04:30:00,72.6,71.4,29.73,NNW,336,0.0,0.0,96,0.00,,,0.00,VWS V14.00,2013-09-02 08:30:00,
2013-09-02 04:35:00,72.6,71.4,29.73,NNW,335,0.0,0.0,96,0.00,,,0.00,VWS V14.00,2013-09-02 08:35:00,
2013-09-02 04:40:00,72.6,71.4,29.73,NNW,336,0.0,0.0,96,0.00,,,0.00,VWS V14.00,2013-09-02 08:40:00,
2013-09-02 04:45:00,72.5,71.3,29.73,NNW,336,0.0,0.0,96,0.00,,,0.00,VWS V14.00,2013-09-02 08:45:00,
2013-09-02 04:50:00,72.6,71.4,29.74,NNW,336,0.0,0.0,96,0.00,,,0.00,VWS V14.00,2013-09-02 08:50:00,
2013-09-02 04:55:00,72.6,71.4,29.74,NNW,336,0.0,0.0,96,0.00,,,0.00,VWS V14.00,2013-09-02 08:55:00,
2013-09-02 05:00:00,72.6,71.4,29.74,NNW,336,0.0,0.0,96,0.00,,,0.00,VWS V14.00,2013-09-02 09:00:00,
2013-09-02 05:05:00,72.6,71.4,29.74,NNW,335,0.0,0.0,96,0.00,,,0.00,VWS V14.00,2013-09-02 09:05:00,
2013-09-02 05:10:00,72.6,71.4,29.74,NNW,336,0.0,0.0,96,0.00,,,0.00,VWS V14.00,2013-09-02 09:10:00,
2013-09-02 05:15:00,72.6,71.4,29.73,NNW,336,0.0,0.0,96,0.00,,,0.00,VWS V14.00,2013-09-02 09:15:00,
2013-09-02 05:20:00,72.6,71.4,29.73,NNW,335,0.0,0.0,96,0.00,,,0.00,VWS V14.00,2013-09-02 09:20:00,
2013-09-02 05:25:00,72.6,71.4,29.74,NNW,336,0.0,0.0,96,0.00,,,0.00,VWS V14.00,2013-09-02 09:25:00,
2013-09-02 05:30:00,72.6,71.4,29.74,NNW,336,0.0,0.0,96,0.00,,,0.00,VWS V14.00,2013-09-02 09:30:00,
2013-09-02 05:35:00,72.6,71.4,29.73,NNW,336,0.0,0.0,96,0.00,,,0.00,VWS V14.00,2013-09-02 09:35:00,
2013-09-02 05:40:00,72.6,71.4,29.73,NNW,335,0.0,0.0,96,0.00,,,0.00,VWS V14.00,2013-09-02 09:40:00,
2013-09-02 05:45:00,72.6,71.4,29.74,NNW,335,0.0,0.0,96,0.00,,,0.00,VWS V14.00,2013-09-02 09:45:00,
2013-09-02 05:50:00,72.6,71.4,29.74,NNW,345,0.0,0.0,96,0.00,,,0.00,VWS V14.00,2013-09-02 09:50:00,
2013-09-02 05:55:00,72.6,71.4,29.73,North,354,0.0,0.0,96,0.00,,,0.00,VWS V14.00,2013-09-02 09:55:00,
2013-09-02 06:00:00,72.6,71.4,29.73,North,4,0.0,0.0,96,0.00,,,0.00,VWS V14.00,2013-09-02 10:00:00,
2013-09-02 06:05:00,72.6,71.4,29.73,North,5,0.0,0.0,96,0.00,,,0.00,VWS V14.00,2013-09-02 10:05:00,
2013-09-02 06:10:00,72.6,71.4,29.74,North,5,0.0,0.0,96,0.00,,,0.00,VWS V14.00,2013-09-02 10:10:00,
2013-09-02 06:15:00,72.6,71.4,29.74,North,5,0.0,0.0,96,0.00,,,0.00,VWS V14.00,2013-09-02 10:15:00,
2013-09-02 06:20:00,72.6,71.4,29.74,North,5,0.0,0.0,96,0.00,,,0.00,VWS V14.00,2013-09-02 10:20:00,
2013-09-02 06:25:00,72.7,71.5,29.74,North,4,0.0,0.0,96,0.00,,,0.00,VWS V14.00,2013-09-02 10:25:00,
2013-09-02 06:30:00,72.7,71.5,29.74,North,5,0.0,0.0,96,0.00,,,0.00,VWS V14.00,2013-09-02 10:30:00,
2013-09-02 06:36:00,72.7,71.5,29.74,North,4,0.0,0.0,96,0.00,,,0.00,VWS V14.00,2013-09-02 10:36:00,
2013-09-02 06:41:00,72.8,71.9,29.74,North,5,0.0,0.0,97,0.00,,,0.00,VWS V14.00,2013-09-02 10:41:00,
2013-09-02 06:46:00,72.8,71.9,29.75,North,5,0.0,0.0,97,0.00,,,0.00,VWS V14.00,2013-09-02 10:46:00,
2013-09-02 06:51:00,72.9,72.0,29.74,North,5,0.0,0.0,97,0.00,,,0.00,VWS V14.00,2013-09-02 10:51:00,
2013-09-02 06:56:00,72.9,72.0,29.74,North,5,0.0,0.0,97,0.00,,,0.00,VWS V14.00,2013-09-02 10:56:00,
2013-09-02 07:00:00,72.9,72.0,29.74,North,5,0.0,0.0,97,0.00,,CLR,0.00,VWS V14.00,2013-09-02 11:00:00,
2013-09-02 07:01:00,72.9,72.0,29.74,North,5,0.0,0.0,97,0.00,,,0.00,VWS V14.00,2013-09-02 11:01:00,
2013-09-02 07:06:00,73.0,72.1,29.75,North,5,0.0,0.0,97,0.00,,,0.00,VWS V14.00,2013-09-02 11:06:00,
2013-09-02 07:11:00,73.1,72.2,29.75,North,4,0.0,0.0,97,0.00,,,0.00,VWS V14.00,2013-09-02 11:11:00,
2013-09-02 07:16:00,73.1,72.2,29.75,North,5,0.0,0.0,97,0.00,,,0.00,VWS V14.00,2013-09-02 11:16:00,
2013-09-02 07:21:00,73.2,72.3,29.75,North,4,0.0,0.0,97,0.00,,,0.00,VWS V14.00,2013-09-02 11:21:00,
2013-09-02 07:26:00,73.3,72.4,29.75,North,4,0.0,0.0,97,0.00,,,0.00,VWS V14.00,2013-09-02 11:26:00,
2013-09-02 07:30:00,73.3,72.4,29.75,North,4,0.0,0.0,97,0.00,,CLR,0.00,VWS V14.00,2013-09-02 11:30:00,
2013-09-02 07:31:00,73.4,72.5,29.75,North,5,0.0,0.0,97,0.00,,,0.00,VWS V14.00,2013-09-02 11:31:00,
2013-09-02 07:36:00,73.5,72.6,29.75,North,4,0.0,0.0,97,0.00,,,0.00,VWS V14.00,2013-09-02 11:36:00,
2013-09-02 07:41:00,73.5,72.6,29.75,North,4,0.0,0.0,97,0.00,,,0.00,VWS V14.00,2013-09-02 11:41:00,
2013-09-02 07:46:00,73.7,72.8,29.75,SSE,167,0.0,0.0,97,0.00,,,0.00,VWS V14.00,2013-09-02 11:46:00,
2013-09-02 07:51:00,73.7,72.8,29.75,NE,51,0.0,0.0,97,0.00,,,0.00,VWS V14.00,2013-09-02 11:51:00,
2013-09-02 07:56:00,73.8,72.9,29.75,NNW,338,0.0,0.0,97,0.00,,,0.00,VWS V14.00,2013-09-02 11:56:00,
2013-09-02 08:00:00,73.9,73.0,29.75,ENE,63,0.0,0.0,97,0.00,,CLR,0.00,VWS V14.00,2013-09-02 12:00:00,
2013-09-02 08:01:00,73.9,73.0,29.76,ENE,63,0.0,0.0,97,0.00,,,0.00,VWS V14.00,2013-09-02 12:01:00,
2013-09-02 08:06:00,73.8,72.9,29.76,NNW,344,0.0,0.0,97,0.00,,,0.00,VWS V14.00,2013-09-02 12:06:00,
2013-09-02 08:11:00,73.9,73.0,29.76,NNW,344,0.0,0.0,97,0.00,,,0.00,VWS V14.00,2013-09-02 12:11:00,
2013-09-02 08:16:00,73.8,72.9,29.76,NNW,345,0.0,0.0,97,0.00,,,0.00,VWS V14.00,2013-09-02 12:16:00,
2013-09-02 08:22:00,73.8,72.9,29.76,NNW,344,0.0,0.0,97,0.00,,,0.00,VWS V14.00,2013-09-02 12:22:00,
2013-09-02 08:27:00,73.9,73.0,29.76,NNW,345,0.0,0.0,97,0.00,,,0.00,VWS V14.00,2013-09-02 12:27:00,
2013-09-02 08:30:00,73.9,73.0,29.76,NNW,344,0.0,0.0,97,0.00,,CLR,0.00,VWS V14.00,2013-09-02 12:30:00,
2013-09-02 08:32:00,73.9,73.0,29.76,NNW,345,0.0,0.0,97,0.00,,,0.00,VWS V14.00,2013-09-02 12:32:00,
2013-09-02 08:37:00,73.8,72.9,29.76,NW,326,3.0,3.0,97,0.00,,,0.00,VWS V14.00,2013-09-02 12:37:00,
2013-09-02 08:42:00,73.5,72.3,29.77,North,8,3.0,3.0,96,0.02,,,0.02,VWS V14.00,2013-09-02 12:42:00,
2013-09-02 08:47:00,72.8,71.6,29.76,NE,56,0.0,3.0,96,0.02,,,0.02,VWS V14.00,2013-09-02 12:47:00,
2013-09-02 08:52:00,72.6,71.4,29.76,NE,38,0.0,3.0,96,0.02,,,0.02,VWS V14.00,2013-09-02 12:52:00,
2013-09-02 08:57:00,72.6,71.4,29.76,North,4,1.0,3.0,96,0.02,,,0.02,VWS V14.00,2013-09-02 12:57:00,
2013-09-02 09:00:00,72.7,71.5,29.76,North,4,0.0,3.0,96,0.02,,CLR,0.02,VWS V14.00,2013-09-02 13:00:00,
2013-09-02 09:02:00,72.8,71.6,29.76,North,4,0.0,0.0,96,0.03,,,0.03,VWS V14.00,2013-09-02 13:02:00,
2013-09-02 09:07:00,73.0,72.1,29.76,East,82,1.0,1.0,97,0.04,,,0.04,VWS V14.00,2013-09-02 13:07:00,
2013-09-02 09:12:00,73.2,72.3,29.76,ENE,70,1.0,4.0,97,0.04,,,0.04,VWS V14.00,2013-09-02 13:12:00,
2013-09-02 09:17:00,73.5,72.6,29.75,ENE,61,0.0,4.0,97,0.04,,,0.04,VWS V14.00,2013-09-02 13:17:00,
2013-09-02 09:22:00,73.6,72.4,29.76,North,8,2.0,4.0,96,0.04,,-RA,0.04,VWS V14.00,2013-09-02 13:22:00,
2013-09-02 09:27:00,73.8,72.6,29.75,NNE,13,0.0,4.0,96,0.04,,-RA,0.04,VWS V14.00,2013-09-02 13:27:00,
2013-09-02 09:30:00,73.9,72.7,29.75,ENE,63,0.0,4.0,96,0.04,,CLR,0.04,VWS V14.00,2013-09-02 13:30:00,
2013-09-02 09:32:00,74.1,72.9,29.75,ENE,66,0.0,0.0,96,0.04,,-RA,0.04,VWS V14.00,2013-09-02 13:32:00,
2013-09-02 09:37:00,74.2,73.0,29.76,ENE,58,0.0,0.0,96,0.04,,-RA,0.04,VWS V14.00,2013-09-02 13:37:00,
2013-09-02 09:42:00,74.5,73.0,29.75,ENE,58,0.0,0.0,95,0.04,,,0.04,VWS V14.00,2013-09-02 13:42:00,
2013-09-02 09:47:00,74.6,72.8,29.75,ENE,75,0.0,0.0,94,0.04,,,0.04,VWS V14.00,2013-09-02 13:47:00,
2013-09-02 09:52:00,75.2,73.4,29.75,SE,134,0.0,1.0,94,0.04,,,0.04,VWS V14.00,2013-09-02 13:52:00,
2013-09-02 09:57:00,75.7,73.5,29.76,WSW,255,0.0,2.0,93,0.04,,,0.04,VWS V14.00,2013-09-02 13:57:00,
2013-09-02 10:00:00,75.9,73.7,29.76,WSW,255,0.0,2.0,93,0.04,,CLR,0.04,VWS V14.00,2013-09-02 14:00:00,
2013-09-02 10:02:00,76.6,74.4,29.76,WSW,255,0.0,0.0,93,0.02,,,0.04,VWS V14.00,2013-09-02 14:02:00,
2013-09-02 10:07:00,77.2,74.0,29.76,WSW,258,0.0,0.0,90,0.02,,,0.04,VWS V14.00,2013-09-02 14:07:00,
2013-09-02 10:12:00,77.2,74.0,29.76,NNW,345,0.0,0.0,90,0.02,,OVC011,0.04,VWS V14.00,2013-09-02 14:12:00,
2013-09-02 10:18:00,77.3,73.5,29.76,North,6,0.0,0.0,88,0.02,,OVC011,0.04,VWS V14.00,2013-09-02 14:18:00,
2013-09-02 10:23:00,77.7,73.9,29.76,NNE,16,1.0,2.0,88,0.02,,OVC011,0.04,VWS V14.00,2013-09-02 14:23:00,
2013-09-02 10:28:00,79.0,74.5,29.75,NE,46,1.0,2.0,86,0.02,,OVC011,0.04,VWS V14.00,2013-09-02 14:28:00,
2013-09-02 10:30:00,79.2,74.3,29.75,ENE,70,1.0,2.0,85,0.02,,CLR,0.04,VWS V14.00,2013-09-02 14:30:00,
2013-09-02 10:33:00,79.6,75.4,29.75,East,94,0.0,1.0,87,0.00,,FEW013,0.04,VWS V14.00,2013-09-02 14:33:00,
2013-09-02 10:38:00,80.1,74.5,29.76,NW,309,0.0,1.0,83,0.00,,FEW013,0.04,VWS V14.00,2013-09-02 14:38:00,
2013-09-02 10:43:00,80.5,74.9,29.75,ESE,115,0.0,1.0,83,0.00,,SCT013,0.04,VWS V14.00,2013-09-02 14:43:00,
2013-09-02 10:48:00,80.2,74.6,29.75,SSE,149,1.0,3.0,83,0.00,,SCT013,0.04,VWS V14.00,2013-09-02 14:48:00,
2013-09-02 10:53:00,80.4,74.8,29.75,ENE,76,0.0,3.0,83,0.00,,SCT013,0.04,VWS V14.00,2013-09-02 14:53:00,
2013-09-02 10:58:00,80.4,74.8,29.76,South,172,1.0,3.0,83,0.00,,SCT013,0.04,VWS V14.00,2013-09-02 14:58:00,
2013-09-02 11:00:00,80.3,74.7,29.76,SSW,201,0.0,3.0,83,0.00,,CLR,0.04,VWS V14.00,2013-09-02 15:00:00,
2013-09-02 11:03:00,80.1,74.5,29.76,SSW,200,1.0,1.0,83,0.00,,SCT090,0.04,VWS V14.00,2013-09-02 15:03:00,
2013-09-02 11:08:00,80.0,74.7,29.76,SSW,198,0.0,1.0,84,0.00,,SCT090,0.04,VWS V14.00,2013-09-02 15:08:00,
2013-09-02 11:13:00,79.7,74.4,29.76,SE,132,0.0,2.0,84,0.00,,SCT090,0.04,VWS V14.00,2013-09-02 15:13:00,
2013-09-02 11:18:00,79.6,74.7,29.76,SSE,148,0.0,2.0,85,0.00,,SCT090,0.04,VWS V14.00,2013-09-02 15:18:00,
2013-09-02 11:23:00,79.3,74.8,29.76,ESE,123,0.0,2.0,86,0.00,,SCT090,0.04,VWS V14.00,2013-09-02 15:23:00,
2013-09-02 11:28:00,79.2,75.0,29.76,SE,139,0.0,2.0,87,0.00,,SCT090,0.04,VWS V14.00,2013-09-02 15:28:00,
2013-09-02 11:30:00,79.3,75.1,29.76,SE,139,0.0,2.0,87,0.00,,CLR,0.04,VWS V14.00,2013-09-02 15:30:00,
2013-09-02 11:33:00,79.1,74.6,29.76,ESE,118,0.0,2.0,86,0.00,,SCT090,0.04,VWS V14.00,2013-09-02 15:33:00,
2013-09-02 11:38:00,79.2,74.7,29.75,East,89,0.0,2.0,86,0.00,,SCT090,0.04,VWS V14.00,2013-09-02 15:38:00,
2013-09-02 11:43:00,78.9,74.4,29.75,East,96,1.0,2.0,86,0.00,,SCT090,0.04,VWS V14.00,2013-09-02 15:43:00,
2013-09-02 11:48:00,79.0,75.2,29.75,ENE,77,0.0,2.0,88,0.00,,SCT090,0.04,VWS V14.00,2013-09-02 15:48:00,
2013-09-02 11:53:00,79.0,74.8,29.75,East,92,0.0,2.0,87,0.00,,SCT090,0.04,VWS V14.00,2013-09-02 15:53:00,
2013-09-02 11:58:00,79.3,75.1,29.75,ESE,107,0.0,2.0,87,0.00,,SCT090,0.04,VWS V14.00,2013-09-02 15:58:00,
2013-09-02 12:00:00,79.3,75.1,29.75,NNE,32,1.0,2.0,87,0.00,,CLR,0.04,VWS V14.00,2013-09-02 16:00:00,
2013-09-02 12:03:00,79.5,75.3,29.75,North,9,0.0,4.0,87,0.00,,-RA,0.04,VWS V14.00,2013-09-02 16:03:00,
2013-09-02 12:08:00,79.6,75.1,29.75,ESE,113,1.0,4.0,86,0.00,,-RA,0.04,VWS V14.00,2013-09-02 16:08:00,
2013-09-02 12:14:00,79.0,74.1,29.75,NE,56,1.0,4.0,85,0.00,,-RA,0.04,VWS V14.00,2013-09-02 16:14:00,
2013-09-02 12:19:00,78.7,74.5,29.75,ENE,57,0.0,4.0,87,0.00,,-RA,0.04,VWS V14.00,2013-09-02 16:19:00,
2013-09-02 12:24:00,78.4,74.6,29.74,ESE,104,0.0,4.0,88,0.00,,-RA,0.04,VWS V14.00,2013-09-02 16:24:00,
2013-09-02 12:29:00,78.2,74.4,29.75,SSE,167,0.0,4.0,88,0.00,,-RA,0.04,VWS V14.00,2013-09-02 16:29:00,
2013-09-02 12:30:00,78.2,74.4,29.74,SSE,167,0.0,4.0,88,0.00,,CLR,0.04,VWS V14.00,2013-09-02 16:30:00,
2013-09-02 12:34:00,78.0,74.5,29.74,SSE,153,0.0,1.0,89,0.00,,-RA,0.04,VWS V14.00,2013-09-02 16:34:00,
2013-09-02 12:39:00,77.8,74.3,29.74,SE,136,0.0,1.0,89,0.00,,-RA,0.04,VWS V14.00,2013-09-02 16:39:00,
2013-09-02 12:44:00,77.5,74.3,29.74,SE,134,0.0,2.0,90,0.00,,-RA,0.04,VWS V14.00,2013-09-02 16:44:00,
2013-09-02 12:49:00,77.3,74.1,29.74,SE,129,0.0,2.0,90,0.00,,-RA,0.04,VWS V14.00,2013-09-02 16:49:00,
2013-09-02 12:54:00,77.1,74.3,29.74,SE,131,1.0,2.0,91,0.00,,-RA,0.04,VWS V14.00,2013-09-02 16:54:00,
2013-09-02 12:59:00,76.8,74.0,29.73,SSE,155,0.0,0.0,91,0.00,,-RA,0.04,VWS V14.00,2013-09-02 16:59:00,
2013-09-02 13:00:00,76.8,74.0,29.73,SSE,155,0.0,2.0,91,0.00,,CLR,0.04,VWS V14.00,2013-09-02 17:00:00,
2013-09-02 13:04:00,76.7,73.9,29.74,SSE,159,0.0,0.0,91,0.00,,-RA,0.04,VWS V14.00,2013-09-02 17:04:00,
2013-09-02 13:09:00,76.6,74.1,29.75,WSW,243,0.0,1.0,92,0.00,,-RA,0.04,VWS V14.00,2013-09-02 17:09:00,
2013-09-02 13:14:00,76.6,74.1,29.74,WSW,243,0.0,1.0,92,0.00,,RA,0.04,VWS V14.00,2013-09-02 17:14:00,
2013-09-02 13:19:00,76.5,74.0,29.74,NW,304,0.0,1.0,92,0.00,,RA,0.04,VWS V14.00,2013-09-02 17:19:00,
2013-09-02 13:24:00,76.5,74.0,29.75,WNW,303,0.0,1.0,92,0.01,,RA,0.05,VWS V14.00,2013-09-02 17:24:00,
2013-09-02 13:29:00,76.5,74.0,29.75,WSW,249,0.0,0.0,92,0.01,,RA,0.05,VWS V14.00,2013-09-02 17:29:00,
2013-09-02 13:30:00,76.5,74.0,29.75,WSW,249,0.0,1.0,92,0.01,,CLR,0.05,VWS V14.00,2013-09-02 17:30:00,
2013-09-02 13:34:00,76.5,74.3,29.75,WSW,253,0.0,0.0,93,0.01,, +RA,0.05,VWS V14.00,2013-09-02 17:34:00,
2013-09-02 13:39:00,76.6,74.4,29.75,WSW,248,0.0,2.0,93,0.01,, +RA,0.05,VWS V14.00,2013-09-02 17:39:00,
2013-09-02 13:44:00,76.4,74.2,29.75,West,264,0.0,2.0,93,0.02,,RA,0.06,VWS V14.00,2013-09-02 17:44:00,
2013-09-02 13:49:00,75.9,73.1,29.76,NNW,327,1.0,4.0,91,0.04,,RA,0.08,VWS V14.00,2013-09-02 17:49:00,
2013-09-02 13:55:00,74.0,70.6,29.76,NNW,348,11.0,11.0,89,0.28,,-RA,0.32,VWS V14.00,2013-09-02 17:55:00,
2013-09-02 14:00:00,72.4,69.3,29.76,NW,323,5.0,11.0,90,0.63,,-RA,0.67,VWS V14.00,2013-09-02 18:00:00,
2013-09-02 14:05:00,71.2,68.8,29.76,NW,320,3.0,11.0,92,0.82,,-RA,0.86,VWS V14.00,2013-09-02 18:05:00,
2013-09-02 14:10:00,71.4,69.3,29.77,NNW,328,0.0,11.0,93,1.18,,-RA,1.22,VWS V14.00,2013-09-02 18:10:00,
2013-09-02 14:15:00,71.2,69.1,29.77,WSW,249,0.0,11.0,93,1.40,,-RA,1.44,VWS V14.00,2013-09-02 18:15:00,
2013-09-02 14:20:00,70.8,68.7,29.76,SSE,162,0.0,11.0,93,1.47,,-RA,1.51,VWS V14.00,2013-09-02 18:20:00,
2013-09-02 14:25:00,70.5,68.4,29.75,SE,136,0.0,11.0,93,1.51,,-RA,1.55,VWS V14.00,2013-09-02 18:25:00,
2013-09-02 14:30:00,70.9,69.1,29.75,ENE,58,1.0,2.0,94,1.51,,-RA,1.56,VWS V14.00,2013-09-02 18:30:00,
2013-09-02 14:35:00,71.2,69.7,29.74,North,6,1.0,2.0,95,1.52,,-RA,1.57,VWS V14.00,2013-09-02 18:35:00,
2013-09-02 14:40:00,71.2,69.4,29.73,NW,318,0.0,2.0,94,1.52,,-RA,1.57,VWS V14.00,2013-09-02 18:40:00,
2013-09-02 14:45:00,71.3,69.8,29.74,NW,318,0.0,2.0,95,1.52,,-RA,1.57,VWS V14.00,2013-09-02 18:45:00,
2013-09-02 14:50:00,71.6,70.1,29.73,NNW,335,0.0,2.0,95,1.52,,OVC090,1.57,VWS V14.00,2013-09-02 18:50:00,
2013-09-02 14:55:00,71.8,70.3,29.73,NNW,339,0.0,2.0,95,1.52,,OVC090,1.57,VWS V14.00,2013-09-02 18:55:00,
2013-09-02 15:00:00,71.7,69.9,29.73,West,259,1.0,1.0,94,0.97,,OVC085,1.57,VWS V14.00,2013-09-02 19:00:00,
2013-09-02 15:05:00,71.9,70.4,29.73,SW,228,0.0,2.0,95,0.97,,OVC085,1.57,VWS V14.00,2013-09-02 19:05:00,
2013-09-02 15:10:00,72.1,70.6,29.72,SE,132,1.0,2.0,95,0.97,,OVC085,1.57,VWS V14.00,2013-09-02 19:10:00,
2013-09-02 15:15:00,72.8,71.6,29.72,SSW,210,0.0,2.0,96,0.97,,OVC085,1.57,VWS V14.00,2013-09-02 19:15:00,
2013-09-02 15:21:00,73.3,71.8,29.72,ENE,69,2.0,3.0,95,0.97,,OVC085,1.57,VWS V14.00,2013-09-02 19:21:00,
2013-09-02 15:26:00,73.6,72.1,29.72,NW,308,0.0,3.0,95,0.97,,OVC085,1.57,VWS V14.00,2013-09-02 19:26:00,
2013-09-02 15:30:00,74.4,72.9,29.72,WNW,290,2.0,3.0,95,0.97,,CLR,1.57,VWS V14.00,2013-09-02 19:30:00,
2013-09-02 15:31:00,74.4,71.9,29.72,WSW,256,1.0,2.0,92,0.01,,OVC085,1.57,VWS V14.00,2013-09-02 19:31:00,
2013-09-02 15:36:00,75.2,72.7,29.71,SSW,194,2.0,3.0,92,0.01,,OVC085,1.57,VWS V14.00,2013-09-02 19:36:00,
2013-09-02 15:41:00,76.4,72.9,29.71,WNW,299,2.0,4.0,89,0.01,,OVC085,1.57,VWS V14.00,2013-09-02 19:41:00,
2013-09-02 15:46:00,76.9,72.7,29.71,SSE,159,0.0,4.0,87,0.01,,OVC085,1.57,VWS V14.00,2013-09-02 19:46:00,
2013-09-02 15:51:00,78.0,74.2,29.71,WSW,255,1.0,4.0,88,0.01,,OVC085,1.57,VWS V14.00,2013-09-02 19:51:00,
2013-09-02 15:56:00,78.8,73.2,29.71,South,170,2.0,4.0,83,0.01,,OVC085,1.57,VWS V14.00,2013-09-02 19:56:00,
2013-09-02 16:00:00,78.8,73.9,29.71,WSW,245,0.0,4.0,85,0.01,,CLR,1.57,VWS V14.00,2013-09-02 20:00:00,
2013-09-02 16:01:00,79.0,73.8,29.71,SSE,158,0.0,1.0,84,0.00,,OVC095,1.57,VWS V14.00,2013-09-02 20:01:00,
2013-09-02 16:06:00,79.8,73.8,29.71,WNW,297,3.0,4.0,82,0.00,,OVC095,1.57,VWS V14.00,2013-09-02 20:06:00,
2013-09-02 16:11:00,78.9,72.9,29.71,West,270,1.0,4.0,82,0.00,,OVC095,1.57,VWS V14.00,2013-09-02 20:11:00,
2013-09-02 16:16:00,78.1,72.2,29.71,SW,221,0.0,4.0,82,0.00,,OVC095,1.57,VWS V14.00,2013-09-02 20:16:00,
2013-09-02 16:21:00,78.3,72.7,29.71,WNW,297,1.0,4.0,83,0.00,,OVC095,1.57,VWS V14.00,2013-09-02 20:21:00,
2013-09-02 16:26:00,78.4,73.2,29.71,WNW,297,0.0,4.0,84,0.00,,OVC095,1.57,VWS V14.00,2013-09-02 20:26:00,
2013-09-02 16:30:00,78.4,73.2,29.71,WNW,297,0.0,4.0,84,0.00,,CLR,1.57,VWS V14.00,2013-09-02 20:30:00,
2013-09-02 16:31:00,78.4,73.2,29.71,WNW,297,0.0,1.0,84,0.00,,OVC095,1.57,VWS V14.00,2013-09-02 20:31:00,
2013-09-02 16:36:00,77.9,73.0,29.71,WSW,239,0.0,2.0,85,0.00,,OVC095,1.57,VWS V14.00,2013-09-02 20:36:00,
2013-09-02 16:41:00,77.5,72.3,29.71,WSW,250,0.0,2.0,84,0.00,,OVC095,1.57,VWS V14.00,2013-09-02 20:41:00,
2013-09-02 16:46:00,77.7,73.2,29.71,WSW,250,0.0,2.0,86,0.00,,OVC095,1.57,VWS V14.00,2013-09-02 20:46:00,
2013-09-02 16:52:00,77.7,72.5,29.71,WSW,250,0.0,2.0,84,0.00,,OVC095,1.57,VWS V14.00,2013-09-02 20:52:00,
2013-09-02 16:57:00,78.0,73.5,29.71,SE,134,0.0,2.0,86,0.00,,OVC095,1.57,VWS V14.00,2013-09-02 20:57:00,
2013-09-02 17:00:00,78.1,73.9,29.71,SE,134,0.0,2.0,87,0.00,,CLR,1.57,VWS V14.00,2013-09-02 21:00:00,
2013-09-02 17:02:00,78.0,72.8,29.71,SSW,195,0.0,1.0,84,0.00,,BKN100,1.57,VWS V14.00,2013-09-02 21:02:00,
2013-09-02 17:07:00,78.1,73.6,29.71,SSW,195,0.0,1.0,86,0.00,,BKN100,1.57,VWS V14.00,2013-09-02 21:07:00,
2013-09-02 17:12:00,78.2,73.3,29.71,SSW,195,0.0,1.0,85,0.00,,BKN100,1.57,VWS V14.00,2013-09-02 21:12:00,
2013-09-02 17:17:00,78.2,73.3,29.71,SW,236,0.0,1.0,85,0.00,,BKN100,1.57,VWS V14.00,2013-09-02 21:17:00,
2013-09-02 17:22:00,78.3,73.4,29.71,NW,325,0.0,2.0,85,0.00,,BKN100,1.57,VWS V14.00,2013-09-02 21:22:00,
2013-09-02 17:27:00,79.0,73.4,29.71,NNW,341,1.0,2.0,83,0.00,,BKN100,1.57,VWS V14.00,2013-09-02 21:27:00,
2013-09-02 17:30:00,79.1,73.5,29.71,NNW,342,0.0,2.0,83,0.00,,CLR,1.57,VWS V14.00,2013-09-02 21:30:00,
2013-09-02 17:32:00,79.2,73.2,29.71,NNW,342,0.0,1.0,82,0.00,,BKN100,1.57,VWS V14.00,2013-09-02 21:32:00,
2013-09-02 17:37:00,79.3,73.7,29.70,NNW,341,0.0,1.0,83,0.00,,BKN100,1.57,VWS V14.00,2013-09-02 21:37:00,
2013-09-02 17:42:00,79.0,73.4,29.70,SSE,158,0.0,2.0,83,0.00,,BKN100,1.57,VWS V14.00,2013-09-02 21:42:00,
2013-09-02 17:47:00,78.7,73.1,29.70,WNW,291,1.0,2.0,83,0.00,,BKN100,1.57,VWS V14.00,2013-09-02 21:47:00,
2013-09-02 17:52:00,78.3,73.1,29.69,WSW,240,0.0,2.0,84,0.00,,BKN100,1.57,VWS V14.00,2013-09-02 21:52:00,
2013-09-02 17:57:00,78.0,72.4,29.69,West,276,0.0,2.0,83,0.00,,BKN100,1.57,VWS V14.00,2013-09-02 21:57:00,
2013-09-02 18:00:00,77.9,72.3,29.69,West,267,1.0,3.0,83,0.00,,CLR,1.57,VWS V14.00,2013-09-02 22:00:00,
2013-09-02 18:03:00,77.9,72.7,29.69,SE,145,2.0,2.0,84,0.00,,SCT100,1.57,VWS V14.00,2013-09-02 22:03:00,
2013-09-02 18:08:00,77.6,72.0,29.69,SW,214,0.0,2.0,83,0.00,,SCT100,1.57,VWS V14.00,2013-09-02 22:08:00,
2013-09-02 18:13:00,77.4,72.2,29.69,SW,214,0.0,2.0,84,0.00,,SCT100,1.57,VWS V14.00,2013-09-02 22:13:00,
2013-09-02 18:18:00,77.1,72.2,29.70,SW,217,0.0,2.0,85,0.00,,SCT100,1.57,VWS V14.00,2013-09-02 22:18:00,
2013-09-02 18:23:00,77.0,72.8,29.70,SW,217,0.0,2.0,87,0.00,,SCT100,1.57,VWS V14.00,2013-09-02 22:23:00,
2013-09-02 18:28:00,76.9,72.7,29.69,SW,218,0.0,2.0,87,0.00,,SCT100,1.57,VWS V14.00,2013-09-02 22:28:00,
2013-09-02 18:30:00,76.8,72.6,29.69,SW,217,0.0,2.0,87,0.00,,CLR,1.57,VWS V14.00,2013-09-02 22:30:00,
2013-09-02 18:33:00,76.8,73.0,29.70,SW,218,0.0,0.0,88,0.00,,SCT100,1.57,VWS V14.00,2013-09-02 22:33:00,
2013-09-02 18:38:00,76.5,72.3,29.69,SSE,149,0.0,2.0,87,0.00,,SCT100,1.57,VWS V14.00,2013-09-02 22:38:00,
2013-09-02 18:43:00,76.0,72.2,29.68,SSE,149,0.0,2.0,88,0.00,,SCT100,1.57,VWS V14.00,2013-09-02 22:43:00,
2013-09-02 18:48:00,75.6,72.1,29.69,SSE,149,0.0,2.0,89,0.00,,SCT100,1.57,VWS V14.00,2013-09-02 22:48:00,
2013-09-02 18:53:00,75.1,72.3,29.69,SSE,149,0.0,2.0,91,0.00,,SCT100,1.57,VWS V14.00,2013-09-02 22:53:00,
2013-09-02 18:58:00,74.6,71.8,29.69,SSE,149,0.0,2.0,91,0.00,,SCT100,1.57,VWS V14.00,2013-09-02 22:58:00,
2013-09-02 19:00:00,74.5,71.7,29.69,SSE,149,0.0,2.0,91,0.00,,CLR,1.57,VWS V14.00,2013-09-02 23:00:00,
2013-09-02 19:03:00,74.3,71.8,29.69,SSE,149,0.0,0.0,92,0.00,,CLR,1.57,VWS V14.00,2013-09-02 23:03:00,
2013-09-02 19:08:00,73.9,71.4,29.69,SSE,149,0.0,0.0,92,0.00,,CLR,1.57,VWS V14.00,2013-09-02 23:08:00,
2013-09-02 19:13:00,73.6,71.5,29.69,SSE,150,0.0,0.0,93,0.00,,CLR,1.57,VWS V14.00,2013-09-02 23:13:00,
2013-09-02 19:18:00,73.3,71.2,29.69,SSE,149,0.0,0.0,93,0.00,,CLR,1.57,VWS V14.00,2013-09-02 23:18:00,
2013-09-02 19:23:00,73.1,71.3,29.69,SSE,149,0.0,0.0,94,0.00,,CLR,1.57,VWS V14.00,2013-09-02 23:23:00,
2013-09-02 19:29:00,72.9,71.1,29.69,SSE,149,0.0,0.0,94,0.00,,CLR,1.57,VWS V14.00,2013-09-02 23:29:00,
2013-09-02 19:30:00,72.9,71.1,29.68,SSE,149,0.0,0.0,94,0.00,,CLR,1.57,VWS V14.00,2013-09-02 23:30:00,
2013-09-02 19:34:00,72.8,71.0,29.69,SSE,149,0.0,0.0,94,0.00,,CLR,1.57,VWS V14.00,2013-09-02 23:34:00,
2013-09-02 19:39:00,72.6,70.8,29.69,SSE,149,0.0,0.0,94,0.00,,CLR,1.57,VWS V14.00,2013-09-02 23:39:00,
2013-09-02 19:44:00,72.5,70.7,29.68,SSE,149,0.0,0.0,94,0.00,,CLR,1.57,VWS V14.00,2013-09-02 23:44:00,
2013-09-02 19:49:00,72.4,70.9,29.69,SSE,149,1.0,1.0,95,0.00,,CLR,1.57,VWS V14.00,2013-09-02 23:49:00,
2013-09-02 19:54:00,72.1,70.3,29.69,SSE,149,0.0,1.0,94,0.00,,CLR,1.57,VWS V14.00,2013-09-02 23:54:00,
2013-09-02 19:59:00,72.0,70.5,29.69,SSE,149,0.0,1.0,95,0.00,,CLR,1.57,VWS V14.00,2013-09-02 23:59:00,
2013-09-02 20:00:00,72.0,70.5,29.69,SSE,149,0.0,1.0,95,0.00,,CLR,1.57,VWS V14.00,2013-09-03 00:00:00,
2013-09-02 20:04:00,71.9,70.4,29.70,SSE,149,0.0,0.0,95,0.00,,CLR,1.57,VWS V14.00,2013-09-03 00:04:00,
2013-09-02 20:09:00,71.7,70.2,29.70,SSE,149,0.0,0.0,95,0.00,,CLR,1.57,VWS V14.00,2013-09-03 00:09:00,
2013-09-02 20:14:00,71.5,70.0,29.70,SSE,149,0.0,0.0,95,0.00,,CLR,1.57,VWS V14.00,2013-09-03 00:14:00,
2013-09-02 20:19:00,71.4,69.9,29.70,SSE,149,0.0,0.0,95,0.00,,CLR,1.57,VWS V14.00,2013-09-03 00:19:00,
2013-09-02 20:24:00,71.4,69.9,29.70,SSE,149,0.0,0.0,95,0.00,,CLR,1.57,VWS V14.00,2013-09-03 00:24:00,
2013-09-02 20:29:00,71.3,69.8,29.70,SSE,149,0.0,0.0,95,0.00,,CLR,1.57,VWS V14.00,2013-09-03 00:29:00,
2013-09-02 20:30:00,71.4,69.9,29.70,SSE,149,0.0,0.0,95,0.00,,CLR,1.57,VWS V14.00,2013-09-03 00:30:00,
2013-09-02 20:34:00,71.2,69.7,29.70,SSE,150,0.0,0.0,95,0.00,,CLR,1.57,VWS V14.00,2013-09-03 00:34:00,
2013-09-02 20:40:00,71.1,69.9,29.70,SSE,149,0.0,0.0,96,0.00,,CLR,1.57,VWS V14.00,2013-09-03 00:40:00,
2013-09-02 20:45:00,71.0,69.8,29.70,SSE,149,0.0,0.0,96,0.00,,CLR,1.57,VWS V14.00,2013-09-03 00:45:00,
2013-09-02 20:50:00,70.8,69.3,29.70,SSE,149,0.0,0.0,95,0.00,,CLR,1.57,VWS V14.00,2013-09-03 00:50:00,
2013-09-02 20:55:00,70.6,69.4,29.70,SSE,149,0.0,0.0,96,0.00,,CLR,1.57,VWS V14.00,2013-09-03 00:55:00,
2013-09-02 21:00:00,70.5,69.3,29.70,SSE,149,0.0,0.0,96,0.00,,CLR,1.57,VWS V14.00,2013-09-03 01:00:00,
2013-09-02 21:05:00,70.3,68.8,29.70,SSE,150,0.0,0.0,95,0.00,,CLR,1.57,VWS V14.00,2013-09-03 01:05:00,
2013-09-02 21:10:00,70.3,69.1,29.70,SSE,149,0.0,0.0,96,0.00,,CLR,1.57,VWS V14.00,2013-09-03 01:10:00,
2013-09-02 21:15:00,70.2,69.0,29.70,SSE,149,0.0,0.0,96,0.00,,CLR,1.57,VWS V14.00,2013-09-03 01:15:00,
2013-09-02 21:20:00,70.1,68.9,29.70,SSE,149,0.0,0.0,96,0.00,,CLR,1.57,VWS V14.00,2013-09-03 01:20:00,
2013-09-02 21:25:00,70.2,69.0,29.70,SSE,149,0.0,0.0,96,0.00,,CLR,1.57,VWS V14.00,2013-09-03 01:25:00,
2013-09-02 21:30:00,70.1,68.9,29.69,SSE,149,0.0,0.0,96,0.00,,CLR,1.57,VWS V14.00,2013-09-03 01:30:00,
2013-09-02 21:35:00,70.1,68.9,29.69,SSE,149,0.0,0.0,96,0.00,,CLR,1.57,VWS V14.00,2013-09-03 01:35:00,
2013-09-02 21:40:00,70.0,68.8,29.69,SSE,149,0.0,0.0,96,0.00,,CLR,1.57,VWS V14.00,2013-09-03 01:40:00,
2013-09-02 21:46:00,69.9,68.7,29.69,SSE,150,0.0,0.0,96,0.00,,CLR,1.57,VWS V14.00,2013-09-03 01:46:00,
2013-09-02 21:51:00,69.8,68.6,29.70,SSE,149,0.0,1.0,96,0.00,,CLR,1.57,VWS V14.00,2013-09-03 01:51:00,
2013-09-02 21:56:00,69.8,68.6,29.70,SSE,149,0.0,1.0,96,0.00,,CLR,1.57,VWS V14.00,2013-09-03 01:56:00,
2013-09-02 22:00:00,69.9,68.7,29.70,SSE,149,0.0,1.0,96,0.00,,CLR,1.57,VWS V14.00,2013-09-03 02:00:00,
2013-09-02 22:01:00,69.9,68.7,29.71,SSE,149,0.0,0.0,96,0.00,,CLR,1.57,VWS V14.00,2013-09-03 02:01:00,
2013-09-02 22:06:00,69.7,68.5,29.71,SSE,149,0.0,0.0,96,0.00,,CLR,1.57,VWS V14.00,2013-09-03 02:06:00,
2013-09-02 22:11:00,69.6,68.4,29.71,SSE,149,0.0,0.0,96,0.00,,CLR,1.57,VWS V14.00,2013-09-03 02:11:00,
2013-09-02 22:16:00,69.6,68.4,29.71,SSE,149,0.0,0.0,96,0.00,,CLR,1.57,VWS V14.00,2013-09-03 02:16:00,
2013-09-02 22:21:00,69.7,68.5,29.72,SSE,149,0.0,0.0,96,0.00,,CLR,1.57,VWS V14.00,2013-09-03 02:21:00,
2013-09-02 22:26:00,69.9,69.0,29.72,SSE,149,0.0,0.0,97,0.00,,CLR,1.57,VWS V14.00,2013-09-03 02:26:00,
2013-09-02 22:30:00,69.9,69.0,29.71,SSE,149,0.0,0.0,97,0.00,,CLR,1.57,VWS V14.00,2013-09-03 02:30:00,
2013-09-02 22:31:00,69.9,69.0,29.71,SSE,149,0.0,0.0,97,0.00,,CLR,1.57,VWS V14.00,2013-09-03 02:31:00,
2013-09-02 22:36:00,70.0,69.1,29.71,SSE,149,0.0,0.0,97,0.00,,CLR,1.57,VWS V14.00,2013-09-03 02:36:00,
2013-09-02 22:41:00,69.9,68.7,29.71,SSE,149,0.0,0.0,96,0.00,,CLR,1.57,VWS V14.00,2013-09-03 02:41:00,
2013-09-02 22:46:00,70.0,68.8,29.71,SSE,149,0.0,0.0,96,0.00,,CLR,1.57,VWS V14.00,2013-09-03 02:46:00,
2013-09-02 22:51:00,70.0,68.8,29.71,SSE,149,0.0,0.0,96,0.00,,CLR,1.57,VWS V14.00,2013-09-03 02:51:00,
2013-09-02 22:56:00,70.0,69.1,29.70,SSE,149,0.0,0.0,97,0.00,,CLR,1.57,VWS V14.00,2013-09-03 02:56:00,
2013-09-02 23:00:00,70.0,69.1,29.70,SSE,149,0.0,0.0,97,0.00,,CLR,1.57,VWS V14.00,2013-09-03 03:00:00,
2013-09-02 23:01:00,70.0,69.1,29.70,SSE,149,0.0,0.0,97,0.00,,FEW004,1.57,VWS V14.00,2013-09-03 03:01:00,
2013-09-02 23:07:00,69.9,69.0,29.70,SSE,149,0.0,0.0,97,0.00,,FEW004,1.57,VWS V14.00,2013-09-03 03:07:00,
2013-09-02 23:12:00,69.9,68.7,29.71,SSE,149,0.0,0.0,96,0.00,,FEW004,1.57,VWS V14.00,2013-09-03 03:12:00,
2013-09-02 23:17:00,69.8,68.6,29.71,SSE,149,0.0,0.0,96,0.00,,FEW004,1.57,VWS V14.00,2013-09-03 03:17:00,
2013-09-02 23:22:00,69.6,68.4,29.71,SSE,149,0.0,0.0,96,0.00,,FEW004,1.57,VWS V14.00,2013-09-03 03:22:00,
2013-09-02 23:27:00,69.6,68.4,29.71,SSE,149,0.0,0.0,96,0.00,,FEW004,1.57,VWS V14.00,2013-09-03 03:27:00,
2013-09-02 23:30:00,69.6,68.7,29.71,SSE,149,0.0,0.0,97,0.00,,CLR,1.57,VWS V14.00,2013-09-03 03:30:00,
2013-09-02 23:32:00,69.6,68.7,29.70,SSE,149,0.0,0.0,97,0.00,,FEW004,1.57,VWS V14.00,2013-09-03 03:32:00,
2013-09-02 23:37:00,69.5,68.3,29.71,SSE,149,0.0,0.0,96,0.00,,FEW004,1.57,VWS V14.00,2013-09-03 03:37:00,
2013-09-02 23:42:00,69.4,68.2,29.71,SSE,149,0.0,0.0,96,0.00,,FEW004,1.57,VWS V14.00,2013-09-03 03:42:00,
2013-09-02 23:47:00,69.5,68.6,29.71,SSE,149,0.0,0.0,97,0.00,,FEW004,1.57,VWS V14.00,2013-09-03 03:47:00,
2013-09-02 23:52:00,69.6,68.7,29.72,SSE,149,0.0,0.0,97,0.00,,FEW004,1.57,VWS V14.00,2013-09-03 03:52:00,
2013-09-02 23:58:00,69.7,68.8,29.72,SSE,149,0.0,0.0,97,0.00,,FEW004,1.57,VWS V14.00,2013-09-03 03:58:00,